CW4290 Weather Reports


time (UTC)temp
C
wind
direction
speed
KPH
gust
KPH
rain 1hr
cm
rain 24hr
cm
rain mn
cm
humidity
%
barometer
mb
20190523060147 25 148 4.8 0.0 0.00 0.00 0.00 79 1011.4
20190523054653 25 158 4.8 0.0 0.00 0.00 0.00 79 1011.4
20190523053143 25 165 4.8 0.0 0.00 0.00 0.00 79 1011.3
20190523051709 25 225 1.6 0.0 0.00 0.00 0.00 78 1011.3
20190523050056 25 155 1.6 0.0 0.00 0.00 0.00 77 1011.3
20190523044621 25 155 1.6 0.0 0.00 0.00 0.00 76 1011.4
20190523043155 25 159 3.2 0.0 0.00 0.00 0.00 75 1011.4
20190523041644 25 122 1.6 0.0 0.00 0.00 0.00 75 1011.3
20190523040110 26 115 3.2 0.0 0.00 0.00 0.00 75 1011.2
20190523034623 26 144 3.2 0.0 0.00 0.00 0.00 74 1010.9
20190523033125 26 162 3.2 0.0 0.00 0.00 0.00 74 1010.8
20190523031612 26 135 1.6 0.0 0.00 0.00 0.00 72 1010.5
20190523030113 26 131 1.6 0.0 0.00 0.00 0.00 71 1010.3
20190523024621 26 126 1.6 0.0 0.00 0.00 0.00 71 1009.8
20190523023039 26 122 1.6 0.0 0.00 0.00 0.00 70 1009.7
20190523021605 27 144 1.6 0.0 0.00 0.00 0.00 69 1009.4
20190523020058 27 144 0.0 0.0 0.00 0.00 0.00 67 1009.2
20190523014638 27 144 0.0 0.0 0.00 0.00 0.00 66 1009.1
20190523013108 28 129 0.0 0.0 0.00 0.00 0.00 65 1009.0
20190523011554 28 129 0.0 0.0 0.00 0.00 0.00 63 1008.7
20190523010059 28 129 3.2 0.0 0.00 0.00 0.00 61 1008.7
20190523004625 29 119 3.2 0.0 0.00 0.00 0.00 59 1008.6
20190523003035 30 145 1.6 0.0 0.00 0.00 0.00 58 1008.4
20190523001555 30 168 3.2 0.0 0.00 0.00 0.00 56 1008.3
20190523000101 30 186 8.0 0.0 0.00 0.00 0.00 54 1008.2
20190522234559 31 169 6.4 0.0 0.00 0.00 0.00 53 1008.2
20190522233113 31 98 6.4 0.0 0.00 0.00 0.00 52 1008.2
20190522231540 32 158 4.8 0.0 0.00 0.00 0.00 52 1008.2
20190522230103 32 170 4.8 0.0 0.00 0.00 0.00 51 1008.3
20190522224557 31 165 6.4 0.0 0.00 0.00 0.00 52 1008.4
20190522223053 31 172 6.4 0.0 0.00 0.00 0.00 51 1008.3
20190522221608 31 101 3.2 0.0 0.00 0.00 0.00 52 1008.3
20190522220111 31 190 4.8 0.0 0.00 0.00 0.00 52 1008.4
20190522214556 31 211 8.0 0.0 0.00 0.00 0.00 53 1008.6
20190522213111 31 190 6.4 0.0 0.00 0.00 0.00 54 1008.7
20190522211527 31 180 4.8 0.0 0.00 0.00 0.00 54 1008.7
20190522210034 30 169 6.4 0.0 0.00 0.00 0.00 58 1008.8
20190522204551 31 157 8.0 0.0 0.00 0.00 0.00 55 1008.8
20190522203047 31 161 6.4 0.0 0.00 0.00 0.00 53 1008.8
20190522201601 31 160 6.4 0.0 0.00 0.00 0.00 57 1008.7
20190522200040 31 115 4.8 0.0 0.00 0.00 0.00 57 1009.0
20190522194536 30 157 11.3 0.0 0.00 0.00 0.00 56 1009.1
20190522193027 30 155 6.4 0.0 0.00 0.00 0.00 58 1009.2
20190522191543 30 221 8.0 0.0 0.00 0.00 0.00 59 1009.3
20190522190032 30 137 8.0 0.0 0.00 0.00 0.00 57 1009.3
20190522184518 30 227 8.0 0.0 0.00 0.00 0.00 58 1009.3
20190522183031 30 196 6.4 0.0 0.00 0.00 0.00 59 1009.3
20190522181527 30 144 6.4 0.0 0.00 0.00 0.00 61 1009.3
20190522180010 29 210 9.7 0.0 0.00 0.00 0.00 61 1009.3
20190522174508 29 143 11.3 0.0 0.00 0.00 0.00 62 1009.3
20190522173034 30 78 6.4 0.0 0.00 0.00 0.00 62 1009.4
20190522171505 28 58 6.4 0.0 0.00 0.00 0.00 64 1009.3
20190522164744 28 158 6.4 0.0 0.00 0.00 0.00 66 1009.2
20190522163218 28 144 6.4 0.0 0.00 0.00 0.00 67 1009.0
20190522161642 28 147 6.4 0.0 0.00 0.00 0.00 69 1008.9
20190522160130 27 136 6.4 0.0 0.00 0.00 0.00 73 1008.8
20190522154658 27 138 6.4 0.0 0.00 0.00 0.00 76 1008.8
20190522153158 26 178 4.8 0.0 0.00 0.00 0.00 78 1008.8
20190522151643 26 119 4.8 0.0 0.00 0.00 0.00 81 1008.8
20190522150122 25 159 3.2 0.0 0.00 0.00 0.00 84 1008.8
20190522144619 25 140 6.4 0.0 0.00 0.00 0.00 85 1008.7
20190522143153 25 165 4.8 0.0 0.00 0.00 0.00 89 1008.3
20190522141701 24 124 6.4 0.0 0.00 0.00 0.00 91 1008.2
20190522140107 24 111 4.8 0.0 0.00 0.00 0.00 92 1008.0
20190522134609 23 178 1.6 0.0 0.00 0.00 0.00 93 1007.7
20190522133049 23 109 4.8 0.0 0.00 0.00 0.00 93 1007.7
20190522131618 23 185 3.2 0.0 0.00 0.00 0.00 93 1007.6
20190522130050 23 169 3.2 0.0 0.00 0.00 0.00 93 1007.2
20190522124526 23 123 3.2 0.0 0.00 0.00 0.00 93 1007.1
20190522123027 22 138 3.2 0.0 0.00 0.00 0.00 93 1007.1
20190522121524 22 132 1.6 0.0 0.00 0.00 0.00 93 1006.8
20190522120053 22 170 1.6 0.0 0.00 0.00 0.00 93 1006.7
20190522114517 22 124 1.6 0.0 0.00 0.00 0.00 93 1006.6
20190522113009 22 135 1.6 0.0 0.00 0.00 0.00 93 1006.2
20190522111540 22 179 1.6 0.0 0.00 0.00 0.00 93 1006.1
20190522110009 21 135 3.2 0.0 0.00 0.00 0.00 93 1006.1
20190522104502 21 171 1.6 0.0 0.00 0.00 0.00 93 1005.8
20190522103345 21 196 0.0 0.0 0.00 0.00 0.00 93 1005.6
20190522101646 20 196 0.0 0.0 0.00 0.00 0.00 92 1005.6
20190522100342 20 196 0.0 0.0 0.00 0.00 0.00 92 1005.6
20190522094700 20 196 0.0 0.0 0.00 0.00 0.00 92 1005.5
20190522093215 20 201 0.0 0.0 0.00 0.00 0.00 92 1005.5
20190522091755 20 201 0.0 0.0 0.00 0.00 0.00 92 1005.6
20190522090144 20 201 0.0 0.0 0.00 0.00 0.00 92 1005.6
20190522084714 20 201 0.0 0.0 0.00 0.00 0.00 92 1005.6
20190522083209 19 201 0.0 0.0 0.00 0.00 0.00 91 1005.6
20190522081645 19 201 0.0 0.0 0.00 0.00 0.00 91 1005.6
20190522080131 19 201 0.0 0.0 0.00 0.00 0.00 91 1005.6
20190522074714 19 201 0.0 0.0 0.00 0.00 0.00 91 1005.5
20190522073148 19 201 0.0 0.0 0.00 0.00 0.00 91 1005.3
20190522071631 19 201 0.0 0.0 0.00 0.00 0.00 91 1005.2
20190522070120 18 201 0.0 0.0 0.00 0.00 0.00 91 1005.2
20190522064606 18 201 0.0 0.0 0.00 0.00 0.00 91 1005.1
20190522063109 18 201 0.0 0.0 0.00 0.00 0.00 90 1005.0
20190522061715 18 201 0.0 0.0 0.00 0.00 0.00 90 1005.0